Theta_e
353 358 361 361 362 361 360 359 360 360 361 361 360 359 357 356 354 352 350 349 348 348 345 344 343 344 343 344 344 341 342 340 342 347 353 351 342 354 349 351 353 350 351
356 358 361 361 360 359 358 359 359 360 360 359 358 356 355 352 350 350 349 348 348 348 343 343 341 342 340 343 341 338 338 340 339 343 351 350 343 353 352 355 352 354 353
356 358 358 360 359 358 359 357 359 359 359 358 356 353 351 349 347 348 348 348 348 347 343 342 341 340 340 341 339 338 336 337 338 340 351 351 342 355 353 353 353 353 353
357 358 357 361 360 358 357 358 359 358 357 356 354 350 347 348 347 347 348 348 347 343 343 341 339 339 339 338 338 337 334 333 335 340 347 353 353 355 354 353 352 353 352
356 358 360 361 360 357 356 356 358 357 355 353 350 348 347 347 348 347 347 347 345 342 341 339 337 337 337 337 336 336 333 331 329 332 337 344 349 347 348 346 347 346 343
354 357 359 358 358 357 355 357 356 355 354 351 348 346 346 347 348 347 346 346 343 341 340 337 336 336 336 337 336 335 334 330 326 321 329 335 338 338 339 339 338 337 337
353 356 357 356 357 356 354 357 355 355 353 350 348 346 344 345 347 346 345 345 340 340 339 336 336 335 336 335 334 334 333 331 323 322 322 329 333 337 333 333 333 333 333
350 353 353 355 355 356 357 357 355 354 351 349 348 346 343 344 345 345 344 342 339 339 338 336 335 336 336 334 333 332 331 329 322 321 322 323 327 333 331 329 329 329 329
350 351 352 352 353 353 356 354 353 352 350 348 348 347 344 342 342 342 342 340 339 339 337 335 335 334 332 331 331 330 328 326 320 321 321 322 325 329 333 331 330 330 329
350 350 351 353 350 352 352 353 350 349 346 346 344 344 344 341 340 338 340 339 337 337 335 336 332 331 329 328 328 327 325 320 320 320 321 322 329 331 331 332 335 333 332
346 344 347 346 346 349 350 350 348 346 343 342 341 343 339 338 336 332 335 334 336 336 336 333 330 328 325 324 323 323 320 319 318 319 319 321 326 329 331 332 333 334 335
335 336 340 342 342 345 343 344 345 342 341 342 343 344 342 341 340 336 337 336 335 334 333 330 327 324 324 323 322 319 319 319 319 318 318 321 325 328 329 330 331 334 333
332 333 335 338 341 339 339 341 341 338 339 339 339 342 341 338 339 339 338 336 335 328 329 329 328 326 324 321 319 318 318 319 319 319 319 321 324 327 328 330 330 332 333
330 332 333 333 334 336 333 334 332 333 333 334 336 338 339 335 336 334 332 331 331 331 330 330 327 324 322 319 318 318 318 318 319 319 320 320 325 328 331 332 326 328 329
326 329 331 332 332 332 333 333 331 330 330 331 332 332 334 334 334 332 330 331 332 331 328 325 324 322 320 318 318 318 318 318 318 320 320 320 324 329 327 324 325 325 326
327 329 329 329 331 330 329 331 330 330 331 330 330 328 329 329 330 330 329 329 325 326 323 322 320 321 319 318 318 318 318 318 318 320 321 324 324 326 324 325 325 325 325
326 329 329 329 330 330 329 328 328 329 331 330 330 332 328 328 325 324 322 323 323 323 320 323 320 319 318 318 318 318 318 319 319 319 321 322 324 321 326 324 325 324 325
325 327 328 327 326 326 325 329 328 327 327 327 327 327 326 327 327 324 323 322 323 322 320 318 316 314 315 316 316 316 317 318 318 318 320 322 324 323 322 325 325 325 325
322 322 323 325 325 326 326 324 324 326 326 326 324 324 323 324 325 326 324 323 321 318 317 316 314 313 313 313 313 314 315 317 318 316 317 320 321 323 324 321 322 324 324
319 320 320 321 324 324 325 326 324 323 323 325 320 319 320 322 322 323 323 321 319 317 315 314 316 312 312 311 311 313 317 317 318 316 316 318 321 322 323 324 324 323 322
317 317 318 319 322 321 320 318 318 317 322 323 325 322 322 322 322 322 320 323 320 316 314 315 313 311 312 318 311 312 314 315 317 317 316 317 317 321 323 323 322 322 322
320 320 320 319 320 320 319 319 320 319 320 321 322 322 322 320 320 320 322 323 325 323 320 315 315 310 312 313 310 310 306 309 313 316 316 314 315 320 321 320 321 320 319
318 318 320 320 320 320 319 318 317 318 317 316 315 316 317 318 318 320 321 321 322 325 320 318 314 314 311 315 315 311 306 303 308 313 313 314 314 317 319 320 319 318 318
317 319 320 320 320 317 317 315 315 312 310 312 313 315 316 318 318 318 319 320 321 324 321 320 317 317 316 312 315 314 315 312 306 304 311 314 312 315 317 319 319 318 316
317 318 320 319 318 316 316 315 313 313 312 313 312 313 315 317 318 317 318 318 318 318 320 317 315 318 316 314 313 313 313 312 313 307 303 308 311 313 312 316 317 316 315
317 317 317 314 315 316 314 315 314 313 312 310 311 310 311 314 314 317 316 317 318 318 319 319 319 317 315 315 315 315 314 311 309 309 306 307 305 309 311 314 315 315 311
Wind_Speed
8 12 13 15 16 17 16 17 17 17 16 16 17 17 16 16 16 16 16 16 16 17 19 19 19 18 18 17 17 18 18 18 16 14 13 8 3 5 3 4 4 5 6
12 14 14 15 15 17 17 17 18 18 17 17 17 18 17 16 16 16 16 15 16 16 18 18 19 18 18 17 18 18 18 18 17 14 14 5 4 5 2 6 4 7 4
15 15 17 16 15 15 15 17 16 18 18 19 18 18 17 16 16 14 14 15 15 17 19 18 18 18 18 18 17 18 19 19 19 14 12 9 8 6 3 3 4 4 3
10 11 13 15 15 16 15 15 14 15 15 16 17 17 16 16 15 14 14 14 15 17 18 18 18 18 19 18 19 19 19 20 19 15 8 9 9 11 9 8 6 8 8
9 10 12 14 14 14 14 14 15 16 16 17 17 17 16 15 14 13 15 15 15 16 17 17 17 17 17 17 18 18 18 18 16 11 10 9 6 10 10 8 7 9 9
10 9 11 12 11 12 15 14 15 16 16 15 14 14 14 14 12 13 14 15 15 15 16 15 16 15 16 16 17 17 16 15 12 11 8 7 6 8 7 7 7 7 7
9 8 9 10 10 10 11 14 15 14 15 14 13 12 12 12 12 12 12 13 13 13 13 14 14 14 14 15 15 15 15 14 11 8 7 6 5 9 4 4 4 4 4
7 6 6 8 8 8 10 12 12 11 11 12 11 10 10 10 11 11 12 11 11 11 11 12 13 13 13 13 14 14 15 15 10 8 7 6 7 11 6 2 1 0 1
6 6 5 6 7 7 10 12 10 9 8 7 8 9 9 10 10 9 9 9 10 10 10 11 11 12 12 12 13 13 13 13 10 7 7 5 8 12 11 5 5 5 4
8 8 6 6 6 1 6 8 9 7 8 7 7 8 7 8 7 7 5 6 7 8 10 11 10 11 11 11 11 11 11 7 9 8 6 5 11 10 10 12 13 10 9
9 11 9 9 8 7 5 6 6 7 7 6 5 6 5 4 4 4 5 5 7 8 9 9 9 9 7 7 9 10 7 6 7 5 6 9 12 11 10 11 10 12 10
10 11 8 9 6 6 6 6 6 6 4 4 3 2 1 2 1 0 3 4 8 8 9 8 8 6 6 5 5 5 5 7 5 6 5 11 12 12 10 10 11 13 14
9 8 10 8 7 5 4 1 4 3 3 2 3 2 2 2 2 2 2 3 4 4 1 1 3 4 7 5 5 5 6 6 5 5 7 10 11 11 10 10 4 11 8
12 11 10 9 6 5 4 3 5 3 3 2 3 2 2 1 2 2 3 3 3 2 1 2 3 3 4 6 5 6 6 5 5 5 7 8 11 11 12 8 4 7 9
10 8 11 11 9 7 6 4 6 6 4 5 4 4 1 1 2 3 3 3 2 1 2 3 3 4 4 4 5 6 6 6 7 5 4 7 10 11 6 2 5 6 8
10 13 13 15 14 12 11 12 8 6 6 6 7 7 8 6 4 2 2 3 4 2 1 1 3 4 5 5 5 5 5 5 6 6 4 3 6 8 6 7 7 7 9
10 10 11 12 13 14 13 9 7 8 7 7 7 9 9 9 7 6 4 2 2 3 2 2 3 4 5 4 5 4 5 4 3 5 3 3 1 4 8 7 7 7 8
10 12 11 10 10 10 9 9 8 8 7 6 5 5 7 5 1 3 3 4 2 3 2 1 3 5 6 6 6 5 4 2 3 4 3 3 3 3 2 8 8 7 6
10 10 11 11 10 7 7 6 7 9 6 7 5 4 7 8 6 3 4 3 2 2 3 1 2 3 2 4 6 5 3 1 2 3 5 4 4 3 3 5 7 8 7
9 9 9 9 11 8 4 3 2 2 1 1 1 3 5 6 6 3 2 3 3 1 2 4 4 1 2 1 5 4 2 3 1 3 4 3 3 3 3 4 3 3 8
7 6 7 9 10 9 7 7 6 6 3 3 3 3 4 5 5 5 4 3 4 5 6 4 4 3 5 2 3 4 3 5 2 2 3 3 4 3 3 3 3 4 3
11 10 11 9 9 9 7 6 4 6 4 6 5 7 6 9 8 7 6 6 7 6 6 5 6 1 3 1 3 3 3 4 4 1 2 4 5 3 2 3 4 5 5
9 9 10 10 10 8 8 5 5 4 5 4 7 7 8 8 8 7 7 7 7 4 5 4 6 6 5 4 4 4 3 2 3 3 2 3 6 4 3 1 3 5 6
7 7 7 7 7 7 8 7 9 7 7 7 7 7 8 7 7 7 7 8 8 3 4 6 5 5 5 5 3 4 2 3 3 3 3 1 5 4 5 3 2 3 4
7 8 6 7 7 7 7 7 6 8 6 6 7 10 8 7 7 8 8 8 8 5 3 3 6 6 4 5 4 3 3 3 2 4 6 3 3 3 5 5 4 4 5
7 7 6 8 8 8 8 8 8 8 9 9 10 8 8 7 7 7 8 7 7 7 6 5 5 4 4 4 5 5 4 2 2 2 4 5 6 5 7 4 4 2 4
Wind_Direction
157 144 142 136 135 131 129 122 117 113 111 109 108 106 102 100 97 96 92 90 90 90 86 80 71 66 63 57 51 48 40 33 26 20 12 359 284 183 167 166 154 113 94
150 148 141 139 134 136 134 133 128 124 120 117 114 110 109 109 105 100 100 99 97 93 88 84 77 69 62 57 56 48 41 34 27 22 18 22 130 158 152 131 145 89 117
155 152 147 142 141 138 137 140 136 131 129 126 124 119 117 113 109 109 109 109 105 98 92 83 71 64 62 61 53 45 35 31 29 25 26 35 87 127 136 131 131 130 148
146 148 147 143 143 145 143 138 133 127 123 121 120 119 119 118 121 120 114 105 97 94 87 81 70 67 65 61 54 48 39 29 28 23 31 41 56 51 59 63 77 71 85
146 139 137 138 136 145 139 135 127 123 125 126 129 132 133 130 123 113 109 105 99 91 84 77 72 71 63 59 55 49 43 33 25 29 25 26 30 54 55 57 88 79 55
141 137 131 129 134 142 141 137 126 126 131 132 133 136 135 126 113 110 111 109 105 101 93 82 73 69 61 55 48 44 43 32 12 19 20 23 15 33 50 65 71 72 69
136 137 131 130 131 137 140 136 136 138 133 133 137 135 122 110 109 111 111 107 107 105 99 85 75 72 62 54 46 38 28 19 2 9 359 350 1 342 23 50 64 71 63
128 116 126 126 137 133 145 134 128 130 133 134 129 122 119 109 103 107 108 106 106 104 95 85 74 69 67 51 37 25 14 6 352 347 334 321 352 333 307 308 296 345 343
102 110 115 132 131 144 134 126 132 125 119 114 112 109 112 113 113 109 104 112 111 105 100 86 72 72 62 47 31 17 7 5 342 349 331 313 342 314 306 283 264 264 268
68 59 63 63 47 160 151 132 133 111 102 88 96 101 107 114 108 102 101 99 97 103 106 87 80 65 46 32 26 11 5 350 352 336 329 344 332 320 297 284 280 262 257
56 39 32 26 22 3 64 105 104 109 100 98 120 92 117 113 120 139 71 104 104 100 100 97 92 74 43 27 14 12 345 350 341 334 317 341 317 310 304 304 307 299 285
41 35 23 21 40 36 8 56 60 51 67 71 56 52 71 55 99 46 2 186 124 120 104 86 70 50 16 350 346 352 352 347 338 327 309 323 314 302 293 293 296 288 269
47 36 20 17 41 60 67 56 92 89 66 67 36 351 5 338 328 227 159 143 154 128 122 93 27 10 3 342 341 0 350 341 332 322 320 313 309 304 285 282 332 17 351
44 30 35 32 45 63 60 81 85 64 56 45 20 262 239 246 116 149 157 140 166 146 125 2 347 3 354 336 1 355 350 339 338 325 321 316 315 304 280 272 348 13 14
63 41 37 36 37 35 65 67 73 58 56 58 43 40 59 154 146 168 146 173 162 146 35 341 319 351 343 352 0 358 351 349 343 341 314 336 323 316 40 22 359 11 6
61 51 46 49 46 48 48 44 54 61 66 57 50 36 33 15 13 25 15 27 21 353 175 334 335 331 343 351 351 355 347 348 351 357 346 341 359 28 21 19 19 10 353
52 51 46 51 45 47 37 23 37 36 49 48 39 27 25 38 4 14 347 33 11 307 313 328 324 358 316 333 345 344 337 345 11 8 2 346 9 51 19 20 14 357 346
55 52 44 38 30 37 43 42 27 14 44 26 24 20 5 356 21 290 268 283 237 291 334 4 29 352 326 347 341 333 340 306 18 38 36 0 2 354 64 23 17 2 357
58 60 54 45 39 38 47 41 37 14 11 35 4 18 13 336 9 334 273 289 46 272 277 127 186 150 335 336 321 304 288 47 76 30 32 15 29 359 352 56 16 16 9
63 59 61 55 42 34 24 59 110 103 309 289 62 339 329 306 308 348 269 236 204 182 336 330 314 325 250 259 278 272 244 213 116 50 25 342 1 0 349 335 331 29 16
59 56 45 55 35 23 16 14 13 10 351 337 291 280 287 321 337 337 320 261 222 195 185 186 262 249 262 259 310 273 188 184 119 43 32 9 348 335 342 335 323 344 7
36 34 33 28 18 17 9 355 336 329 325 342 346 344 346 337 326 318 310 287 260 240 211 197 229 258 270 243 294 300 265 184 213 224 349 20 1 332 354 9 359 9 5
25 17 9 7 2 7 1 356 354 351 342 341 350 337 340 323 323 328 319 311 312 281 232 201 229 218 262 228 237 293 270 313 318 199 241 354 356 318 332 7 358 15 10
11 6 354 347 355 3 3 0 357 351 345 343 337 330 328 341 336 333 333 334 327 310 233 229 228 248 252 269 227 202 254 324 317 289 214 15 333 290 318 307 356 16 359
350 345 330 346 3 358 350 350 343 341 339 332 334 336 335 332 339 336 336 331 333 315 289 194 215 218 251 288 278 272 232 214 226 289 303 321 324 353 328 291 326 353 341
353 351 359 359 350 349 340 339 343 338 339 336 342 337 344 336 337 348 343 333 324 322 322 305 290 235 220 264 281 281 264 300 323 271 285 299 331 337 333 317 290 338 313